Location: Unspecified
(0.0000°N, 0.0000°E)
Time: 01:47:45
(UTC+00:00)

Hubble Space Telescope - Pass Details

Date: 23 May 2017
Orbit: 538 x 542 km, 28.5° (Epoch: 22 June)

Event Time Altitude Azimuth Distance (km) Brightness Sun altitude
Rises 18:52:21 0° 237° (WSW) 2,677 4.9 -13.0°
Reaches altitude 10° 18:54:37 10° 235° (SW) 1,785 3.9 -13.5°
Maximum altitude 18:58:44 76° 150° (SSE) 554 0.6 -14.5°
Enters shadow 19:01:52 17° 65° (ENE) 1,401 2.5 -15.2°
